TimeEDT,TemperatureF,Dew PointF,Humidity,Sea Level PressureIn,VisibilityMPH,Wind Direction,Wind SpeedMPH,Gust SpeedMPH,PrecipitationIn,Events,Conditions,WindDirDegrees,DateUTC
12:54 AM,46.0,39.9,79,29.58,-9999.0,South,6.9,-,N/A,,Unknown,180,2012-11-01 04:54:00
1:54 AM,46.9,39.9,77,29.57,-9999.0,SSW,9.2,-,N/A,,Unknown,210,2012-11-01 05:54:00
2:54 AM,46.9,39.9,77,29.56,-9999.0,SW,8.1,-,N/A,,Unknown,220,2012-11-01 06:54:00
3:54 AM,46.9,41.0,80,29.55,-9999.0,South,9.2,-,N/A,,Unknown,180,2012-11-01 07:54:00
4:54 AM,46.0,41.0,83,29.56,-9999.0,SW,10.4,-,N/A,,Unknown,220,2012-11-01 08:54:00
5:54 AM,45.0,37.9,76,29.57,-9999.0,SW,11.5,-,N/A,,Unknown,220,2012-11-01 09:54:00
6:54 AM,43.0,36.0,76,29.58,-9999.0,SW,9.2,-,N/A,,Unknown,230,2012-11-01 10:54:00
7:54 AM,43.0,36.0,76,29.59,-9999.0,SW,8.1,-,N/A,,Unknown,220,2012-11-01 11:54:00
8:54 AM,44.1,36.0,73,29.60,-9999.0,SSW,9.2,-,N/A,,Unknown,210,2012-11-01 12:54:00
9:54 AM,46.9,36.0,66,29.59,-9999.0,SW,9.2,-,N/A,,Unknown,230,2012-11-01 13:54:00
10:54 AM,50.0,37.9,63,29.58,-9999.0,SSW,12.7,20.7,N/A,,Unknown,210,2012-11-01 14:54:00
11:54 AM,50.0,37.0,61,29.57,-9999.0,WSW,15.0,21.9,N/A,,Unknown,240,2012-11-01 15:54:00
12:54 PM,55.0,39.0,55,29.54,-9999.0,SSW,13.8,19.6,N/A,,Unknown,200,2012-11-01 16:54:00
1:54 PM,55.9,39.0,53,29.53,-9999.0,SSW,10.4,17.3,N/A,,Unknown,200,2012-11-01 17:54:00
2:54 PM,54.0,37.9,55,29.53,-9999.0,SSW,11.5,18.4,N/A,,Unknown,210,2012-11-01 18:54:00
3:54 PM,52.0,37.9,59,29.53,-9999.0,SW,12.7,16.1,N/A,,Unknown,230,2012-11-01 19:54:00
4:54 PM,51.1,37.9,61,29.53,-9999.0,SW,12.7,-,N/A,,Unknown,220,2012-11-01 20:54:00
5:54 PM,50.0,37.9,63,29.54,-9999.0,SW,9.2,-,N/A,,Unknown,230,2012-11-01 21:54:00
6:54 PM,50.0,37.9,63,29.55,-9999.0,WSW,6.9,-,N/A,,Unknown,240,2012-11-01 22:54:00
7:54 PM,48.9,39.0,69,29.56,-9999.0,WSW,8.1,-,N/A,,Unknown,240,2012-11-01 23:54:00
8:54 PM,48.0,39.0,71,29.57,-9999.0,WSW,6.9,-,N/A,,Unknown,240,2012-11-02 00:54:00
9:54 PM,46.9,39.0,74,29.57,-9999.0,WSW,9.2,-,N/A,,Unknown,250,2012-11-02 01:54:00
10:54 PM,46.0,39.0,76,29.57,-9999.0,WSW,8.1,-,N/A,,Unknown,250,2012-11-02 02:54:00
11:54 PM,46.0,37.9,73,29.58,-9999.0,WSW,8.1,-,N/A,,Unknown,250,2012-11-02 03:54:00